Date_and_time,latitude,longitude,wind_speed,RelWindDirFrom,WindDirFrom,air_pressure,air_temperature,relative_humidity,Temp,platform_speed_wrt_ground,air_pressure_at_mean_sea_level,platform_orientation
2019-06-06 23:40,51.6372366666667,-96.7974333333333,8.5,15.5,283,984.72,17.0,51,13.50,8.6,1010.87,145.4
2019-06-06 23:50,51.63932,-96.8028016666667,6.4,12.3,334,984.67,18.4,43,14.74,1.4,1010.76,145.4
2019-06-07 00:00,51.63932,-96.8027933333333,4.6,8.2,342,984.75,18.7,43,15.18,0.0,1010.81,157.6
2019-06-07 00:10,51.6393183333333,-96.8027833333333,5.1,8.6,327,984.82,18.9,42,15.28,0.0,1010.89,157.6
2019-06-07 00:20,51.639315,-96.8027583333333,3.9,8.6,338,984.87,19.0,42,15.24,0.0,1010.93,157.6
2019-06-07 00:30,51.639315,-96.8027683333333,4.1,7.6,338,984.75,19.0,42,15.23,0.0,1010.81,157.6
2019-06-07 00:40,51.6393133333333,-96.80277,4.1,7.0,329,984.81,18.9,43,15.27,0.0,1010.87,157.6
2019-06-07 00:50,51.6393133333333,-96.8027716666667,3.6,6.8,332,984.78,18.8,44,15.31,0.0,1010.86,157.6
2019-06-07 01:00,51.63931,-96.8027716666667,3.3,6.9,343,984.68,18.6,44,15.35,0.0,1010.78,185.5
2019-06-07 01:10,51.6393133333333,-96.802765,3.4,6.4,340,984.60,18.5,44,15.40,0.0,1010.70,185.5
2019-06-07 01:20,51.639315,-96.802765,3.8,6.9,346,984.55,18.4,44,15.42,0.0,1010.65,185.5
2019-06-07 01:30,51.639315,-96.8027666666667,4.0,7.3,353,984.49,18.3,44,15.37,0.0,1010.56,185.5
2019-06-07 01:40,51.639315,-96.8027683333333,5.3,7.6,353,984.36,18.1,44,15.27,0.0,1010.37,185.5
2019-06-07 01:50,51.639315,-96.8027683333333,5.3,8.8,356,984.29,18.1,45,15.13,0.0,1010.28,185.5
2019-06-07 02:00,51.639315,-96.8027683333333,5.6,7.9,353,984.29,18.0,47,15.15,0.0,1010.27,183.6
2019-06-07 02:10,51.6393016666667,-96.802765,5.1,8.3,346,984.41,17.9,48,15.22,0.0,1010.40,183.6
2019-06-07 02:20,51.6393133333333,-96.8027683333333,5.9,8.6,351,984.36,17.8,49,15.23,0.0,1010.36,183.6
2019-06-07 02:30,51.6393133333333,-96.802765,5.9,9.2,360,984.34,17.9,49,15.22,0.0,1010.33,183.6
2019-06-07 02:40,51.6393133333333,-96.8027666666667,0.4,3.5,14,984.58,18.2,50,15.23,0.0,1010.58,183.6
2019-06-07 02:50,51.6393133333333,-96.8027666666667,0.8,2.5,300,984.75,17.8,53,15.30,0.0,1010.77,183.6
2019-06-07 03:00,51.6393133333333,-96.8027666666667,1.0,2.1,294,984.91,17.5,53,15.30,0.0,1010.95,104.3
2019-06-07 03:10,51.6393133333333,-96.8027666666667,0.6,2.1,293,984.96,17.2,54,15.33,0.0,1011.02,104.3
2019-06-07 03:20,51.6393116666667,-96.8027883333333,1.3,2.5,114,984.92,17.5,56,15.35,0.0,1010.98,104.3
2019-06-07 03:30,51.639315,-96.8027833333333,2.0,4.0,87,984.81,17.2,61,15.41,0.0,1010.88,104.3
2019-06-07 03:40,51.63932,-96.8027616666667,3.9,5.6,54,984.77,17.7,51,15.41,0.0,1010.82,104.3
2019-06-07 03:50,51.639315,-96.80277,4.2,6.1,49,984.78,18.4,47,15.40,0.0,1010.80,104.3
2019-06-07 04:00,51.6393183333333,-96.8027666666667,4.5,7.6,54,984.83,18.4,46,15.41,0.0,1010.86,7.0
2019-06-07 04:10,51.6393183333333,-96.8027666666667,4.3,5.3,67,984.83,18.0,49,15.42,0.0,1010.88,7.0
2019-06-07 04:20,51.6393183333333,-96.8027683333333,4.6,5.6,69,984.66,17.5,52,15.42,0.0,1010.72,7.0
2019-06-07 04:30,51.6393183333333,-96.8027683333333,5.1,6.1,71,984.56,17.2,53,15.42,0.0,1010.62,7.0
2019-06-07 04:40,51.6393166666667,-96.80277,6.2,7.6,81,984.26,16.7,56,15.41,0.0,1010.36,7.0
2019-06-07 04:50,51.6393166666667,-96.80277,6.5,7.4,87,983.89,16.1,61,15.41,0.0,1010.01,7.0
2019-06-07 05:00,51.639315,-96.80277,9.6,11.0,95,983.72,16.2,59,15.40,0.0,1009.84,270.0
2019-06-07 05:10,51.639315,-96.80277,11.7,13.9,94,983.52,16.6,55,15.40,0.0,1009.62,270.0
2019-06-07 05:20,51.6393133333333,-96.8027683333333,10.9,12.5,103,983.49,16.7,55,15.39,0.0,1009.59,270.0
2019-06-07 05:30,51.63931,-96.80278,8.8,11.3,106,983.82,16.7,55,15.41,0.0,1009.90,270.0
2019-06-07 05:40,51.6393116666667,-96.8027816666667,7.5,8.8,101,983.95,16.6,55,15.39,0.0,1010.02,270.0
2019-06-07 05:50,51.63931,-96.80278,8.2,9.6,101,983.87,16.6,53,15.36,0.0,1009.93,270.0
2019-06-07 06:00,51.6393133333333,-96.8027766666667,6.3,7.8,113,983.68,16.5,57,15.30,0.0,1009.76,270.0
2019-06-07 06:10,51.6393133333333,-96.802775,5.2,6.3,116,983.62,16.4,57,15.30,0.0,1009.72,270.0
2019-06-07 06:20,51.63932,-96.802775,4.2,5.3,106,983.67,16.2,58,15.27,0.0,1009.80,270.0
2019-06-07 06:30,51.6393083333333,-96.802765,3.8,5.2,110,983.65,16.1,58,15.25,0.0,1009.80,270.0
2019-06-07 06:40,51.6393166666667,-96.80276,4.9,5.8,110,983.57,16.1,59,15.22,0.0,1009.75,270.0
2019-06-07 06:50,51.6393133333333,-96.8027633333333,5.1,6.3,100,983.50,15.9,61,15.17,0.0,1009.68,270.0
2019-06-07 07:00,51.6393116666667,-96.8027733333333,6.1,7.6,101,983.23,15.8,60,15.16,0.0,1009.40,270.0
2019-06-07 07:10,51.6393133333333,-96.80277,6.3,7.5,105,983.08,15.9,59,15.21,0.0,1009.23,270.0
2019-06-07 07:20,51.6393133333333,-96.8027716666667,7.2,8.0,111,982.88,16.0,58,15.20,0.0,1009.02,270.0
2019-06-07 07:30,51.639315,-96.80277,8.0,9.4,111,982.80,16.2,56,15.18,0.0,1008.93,270.0
2019-06-07 07:40,51.6393166666667,-96.8027716666667,8.6,9.8,110,982.84,16.2,56,15.18,0.0,1008.97,270.0
2019-06-07 07:50,51.6393166666667,-96.80277,7.3,9.4,112,983.09,16.2,56,15.20,0.0,1009.23,270.0
2019-06-07 08:00,51.6393166666667,-96.80277,7.9,10.4,114,982.96,16.2,57,15.20,0.0,1009.11,0.0
2019-06-07 08:10,51.639315,-96.80277,10.0,11.3,109,982.53,16.1,57,15.19,0.0,1008.67,0.0
2019-06-07 08:20,51.639315,-96.80277,9.8,11.6,115,982.38,16.1,57,15.19,0.0,1008.52,0.0
2019-06-07 08:30,51.639315,-96.80277,9.5,10.8,120,982.22,16.0,58,15.20,0.0,1008.37,0.0
2019-06-07 08:40,51.6393316666667,-96.8027816666667,9.3,10.7,122,982.20,16.0,59,15.18,0.0,1008.36,0.0
2019-06-07 08:50,51.6393016666667,-96.8027733333333,9.9,12.7,125,982.35,16.0,57,15.18,0.0,1008.52,0.0
2019-06-07 09:00,51.6393216666667,-96.8027633333333,12.5,14.1,122,982.37,16.4,53,15.15,0.0,1008.52,67.6
2019-06-07 09:10,51.6393233333333,-96.8027716666667,12.4,14.9,125,982.36,16.6,53,15.14,0.0,1008.49,67.6
2019-06-07 09:20,51.639305,-96.8027633333333,13.6,16.3,125,982.22,16.5,53,15.12,0.0,1008.34,67.6
2019-06-07 09:30,51.6393183333333,-96.802765,13.4,15.7,126,982.04,16.4,53,15.19,0.0,1008.16,67.6
2019-06-07 09:40,51.6392983333333,-96.80278,14.1,16.6,126,981.74,16.3,52,15.11,0.0,1007.86,67.6
2019-06-07 09:50,51.6393,-96.802775,14.1,16.4,122,981.53,16.3,53,15.05,0.0,1007.65,67.6
2019-06-07 10:00,51.6393066666667,-96.80276,14.0,16.6,125,981.53,16.2,53,15.02,0.0,1007.65,145.9
2019-06-07 10:10,51.6393,-96.8027466666667,14.6,17.4,126,981.43,16.1,52,15.03,0.0,1007.55,145.9
2019-06-07 10:20,51.6393033333333,-96.802785,14.8,17.6,125,981.32,16.1,52,14.97,0.0,1007.44,145.9
2019-06-07 10:30,51.6393166666667,-96.80277,15.3,17.8,125,981.18,16.0,52,14.92,0.0,1007.31,145.9
2019-06-07 10:40,51.639315,-96.8027733333333,15.3,17.9,124,981.07,15.9,54,14.94,0.0,1007.20,145.9
2019-06-07 10:50,51.6393133333333,-96.8027616666667,15.1,17.5,123,980.90,15.8,54,14.96,0.0,1007.01,145.9
2019-06-07 11:00,51.6393033333333,-96.802765,14.4,17.3,122,980.80,15.7,55,14.99,0.0,1006.90,140.3
2019-06-07 11:10,51.638865,-96.8025616666667,12.3,14.8,121,980.99,15.8,55,14.98,0.2,1007.10,140.3
2019-06-07 11:20,51.6405716666667,-96.7808583333333,13.7,18.1,111,980.92,15.9,54,14.86,4.9,1007.02,140.3
2019-06-07 11:30,51.6636516666667,-96.771405,12.0,19.8,85,981.18,15.8,53,13.92,8.6,1007.30,140.3
2019-06-07 11:40,51.69504,-96.7861683333333,6.6,9.0,64,981.46,16.3,52,13.50,11.8,1007.57,140.3
2019-06-07 11:50,51.7132316666667,-96.7889,8.4,15.3,102,981.24,16.4,50,13.02,6.6,1007.33,140.3
2019-06-07 12:00,51.71617,-96.79056,12.1,15.4,125,980.88,17.2,45,12.62,1.1,1006.93,5.6
2019-06-07 12:10,51.741205,-96.82,3.1,9.9,99,980.93,18.2,46,12.55,11.1,1006.95,5.6
2019-06-07 12:20,51.75472,-96.83625,8.4,12.6,119,980.80,19.3,44,12.67,6.1,1006.76,5.6
2019-06-07 12:30,51.7629366666667,-96.8461483333333,12.1,14.7,116,980.59,22.0,38,12.85,3.7,1006.43,5.6
2019-06-07 12:40,51.770775,-96.8564333333333,11.0,13.9,120,980.51,20.2,45,12.84,3.6,1006.43,5.6
2019-06-07 12:50,51.7764466666667,-96.8630966666667,12.3,18.5,123,980.21,17.2,52,12.83,2.5,1006.27,5.6
2019-06-07 13:00,51.7749066666667,-96.8624166666667,14.9,18.1,126,979.70,16.8,52,12.75,0.6,1005.76,344.8
2019-06-07 13:10,51.7748916666667,-96.8624766666667,15.2,18.7,125,979.65,17.6,49,12.82,0.0,1005.67,344.8
2019-06-07 13:20,51.77486,-96.862525,12.5,15.3,114,979.97,18.0,47,12.82,0.0,1005.98,344.8
2019-06-07 13:30,51.774805,-96.86243,10.5,14.3,103,980.17,18.1,47,12.84,0.0,1006.17,344.8
2019-06-07 13:40,51.7936816666667,-96.87563,9.9,15.1,62,980.21,17.7,50,12.80,7.4,1006.21,344.8
2019-06-07 13:50,51.8221783333333,-96.8988633333333,10.3,12.8,60,980.21,16.9,56,12.34,11.5,1006.21,344.8
2019-06-07 14:00,51.8506833333333,-96.9210433333333,10.0,11.8,25,980.41,15.6,63,12.31,11.4,1006.43,340.9
2019-06-07 14:10,51.8793716666667,-96.9431116666667,11.6,13.1,57,980.12,15.7,60,12.40,11.4,1006.08,340.9
2019-06-07 14:20,51.907885,-96.96467,12.8,20.6,359,980.75,15.7,59,12.19,11.3,1006.61,340.9
2019-06-07 14:30,51.93642,-96.9850533333333,10.6,25.1,302,981.98,15.5,63,12.00,11.2,1007.96,340.9
2019-06-07 14:40,51.96504,-97.0045433333333,15.4,22.9,291,982.26,14.4,71,12.04,11.2,1008.44,340.9
2019-06-07 14:50,51.9933066666667,-97.0255533333333,12.8,17.2,307,982.02,13.4,78,11.88,11.2,1008.25,340.9
2019-06-07 15:00,52.0215516666667,-97.0467366666667,11.0,12.9,340,981.37,13.0,79,11.74,11.2,1007.56,332.7
2019-06-07 15:10,52.049545,-97.0685983333333,15.6,17.3,19,979.91,13.4,77,11.36,11.2,1006.02,332.7
2019-06-07 15:20,52.07714,-97.0923166666667,11.0,14.9,29,980.14,12.8,83,11.02,11.2,1006.30,332.7
2019-06-07 15:30,52.0936966666667,-97.1067016666667,5.3,10.9,60,980.69,13.1,82,10.86,6.8,1006.86,332.7
2019-06-07 15:40,52.100725,-97.1127966666667,10.2,13.7,93,980.12,14.3,80,10.80,2.9,1006.25,332.7
2019-06-07 15:50,52.1082416666667,-97.1140316666667,14.6,18.0,102,979.70,12.7,96,10.75,2.7,1005.96,332.7
2019-06-07 16:00,52.1150883333333,-97.1217083333333,11.5,15.5,99,979.78,13.4,91,10.77,3.0,1006.00,334.9
2019-06-07 16:10,52.1215483333333,-97.1301066666667,15.1,24.5,116,979.43,14.7,87,10.67,3.0,1005.58,334.9
2019-06-07 16:20,52.1214433333333,-97.1302,22.3,25.4,114,977.99,13.0,96,10.58,0.0,1004.19,334.9
2019-06-07 16:30,52.1214616666667,-97.1301666666667,19.8,22.0,106,978.01,13.1,94,10.57,0.0,1004.25,334.9
2019-06-07 16:40,52.12353,-97.1351116666667,22.8,26.9,103,977.00,13.2,93,10.55,1.3,1003.26,334.9
2019-06-07 16:50,52.1526316666667,-97.156915,17.7,23.8,77,977.20,13.2,97,10.43,11.5,1003.48,334.9
2019-06-07 17:00,52.1820816666667,-97.1758433333333,17.7,22.9,29,977.16,13.4,94,10.07,11.4,1003.42,334.8
2019-06-07 17:10,52.212135,-97.1912066666667,20.9,26.2,70,976.10,14.2,94,9.95,11.3,1002.32,334.8
2019-06-07 17:20,52.2354483333333,-97.1917983333333,24.5,28.9,85,974.73,13.8,98,10.03,8.4,1000.91,334.8
2019-06-07 17:30,52.2439716666667,-97.1950983333333,24.8,28.5,103,974.37,14.2,94,10.25,3.2,1000.47,334.8
2019-06-07 17:40,52.252145,-97.1990383333333,21.0,24.0,107,974.49,14.5,92,10.40,3.1,1000.66,334.8
2019-06-07 17:50,52.26016,-97.2012033333333,17.7,22.8,114,975.15,14.9,90,10.53,2.9,1001.29,334.8
2019-06-07 18:00,52.26596,-97.1925966666667,23.4,29.9,108,974.93,15.2,86,10.65,2.8,1000.98,339.9
2019-06-07 18:10,52.2661,-97.1928516666667,17.7,21.2,116,975.12,15.4,85,10.75,0.1,1001.25,339.9
2019-06-07 18:20,52.2660333333333,-97.1928866666667,17.0,20.1,105,975.01,15.3,87,10.77,0.0,1001.13,339.9
2019-06-07 18:30,52.26602,-97.1928583333333,12.2,15.2,87,975.44,15.1,88,10.75,0.0,1001.59,339.9
2019-06-07 18:40,52.2659216666667,-97.19292,11.7,15.6,65,975.62,14.3,92,10.70,0.0,1001.80,339.9
2019-06-07 18:50,52.2832983333333,-97.1914366666667,19.4,24.9,57,975.03,14.2,94,10.71,6.3,1001.19,339.9
2019-06-07 19:00,52.3142783333333,-97.1920166666667,19.8,23.7,46,975.16,14.3,94,10.61,11.2,1001.29,347.8
2019-06-07 19:10,52.344755,-97.1912133333333,21.5,26.9,40,975.03,13.9,97,9.21,11.0,1001.19,347.8
2019-06-07 19:20,52.3691466666667,-97.2202383333333,16.4,23.8,45,975.02,14.3,95,8.63,10.9,1001.13,347.8
2019-06-07 19:30,52.3913416666667,-97.256385,15.2,17.6,52,974.67,14.2,95,8.38,11.3,1000.77,347.8
2019-06-07 19:40,52.4082733333333,-97.2872083333333,15.4,19.2,69,974.14,14.7,90,8.18,9.1,1000.19,347.8
2019-06-07 19:50,52.4147566666667,-97.299115,18.5,23.5,91,973.73,15.6,81,7.47,3.5,999.71,347.8
2019-06-07 20:00,52.4196216666667,-97.3104566666667,20.5,23.1,87,973.44,15.5,81,6.96,3.0,999.40,340.9
2019-06-07 20:10,52.424185,-97.3213716666667,18.5,20.6,89,973.34,15.6,81,6.83,2.9,999.31,340.9
2019-06-07 20:20,52.4293933333333,-97.3306633333333,16.7,19.5,97,973.26,15.4,83,6.63,2.8,999.24,340.9
2019-06-07 20:30,52.4334216666667,-97.3378,16.0,18.7,100,973.05,14.6,89,6.36,2.1,999.10,340.9
2019-06-07 20:40,52.4334983333333,-97.3377583333333,16.7,18.3,106,972.73,13.8,95,6.22,0.0,998.81,340.9
2019-06-07 20:50,52.4334933333333,-97.3377733333333,18.6,21.8,111,972.37,14.4,87,6.20,0.0,998.41,340.9
2019-06-07 21:00,52.433535,-97.3377433333333,19.1,21.9,109,972.23,15.5,79,6.20,0.0,998.24,332.2
2019-06-07 21:10,52.4334533333333,-97.33746,16.9,18.2,108,972.13,15.4,77,6.13,0.1,998.12,332.2
2019-06-07 21:20,52.4526183333333,-97.3508583333333,14.2,22.6,82,972.11,15.2,77,6.09,7.5,998.12,332.2
2019-06-07 21:30,52.4795533333333,-97.3735483333333,14.0,16.9,71,972.09,14.5,78,6.05,10.9,998.10,332.2
2019-06-07 21:40,52.5067183333333,-97.3955916666667,13.4,15.4,73,971.99,14.6,75,6.09,10.9,997.95,332.2
2019-06-07 21:50,52.5337933333333,-97.4177716666667,12.2,14.5,71,971.92,14.0,78,5.90,10.9,997.91,332.2
2019-06-07 22:00,52.5606183333333,-97.440645,11.1,14.3,65,971.78,13.5,79,5.82,10.9,997.79,328.5
2019-06-07 22:10,52.587415,-97.4635883333333,10.3,12.4,48,971.62,13.5,79,5.74,10.9,997.62,328.5
2019-06-07 22:20,52.61438,-97.4857316666667,12.6,14.7,37,971.33,13.6,80,5.67,10.8,997.37,328.5
2019-06-07 22:30,52.641435,-97.50782,15.6,17.8,16,971.07,13.1,83,5.77,10.9,997.16,328.5
2019-06-07 22:40,52.6675616666667,-97.53182,18.6,21.1,13,970.90,14.8,78,6.06,10.8,996.87,328.5
2019-06-07 22:50,52.6946466666667,-97.552855,20.3,21.7,15,970.91,16.4,73,6.67,10.8,996.77,328.5
2019-06-07 23:00,52.72136,-97.5757433333333,17.5,20.7,25,971.13,19.7,62,7.35,10.8,996.85,332.0
2019-06-07 23:10,52.7480666666667,-97.5991283333333,16.0,17.7,8,971.11,17.4,70,7.77,10.9,996.94,332.0
2019-06-07 23:20,52.7753533333333,-97.6206183333333,17.4,18.6,0,971.09,17.1,71,7.51,10.9,996.97,332.0
2019-06-07 23:30,52.8050433333333,-97.6173,18.0,19.5,8,970.87,17.2,71,7.70,10.7,996.73,332.0
2019-06-07 23:40,52.81791,-97.618805,10.5,16.9,355,971.34,18.4,66,6.87,4.6,997.19,332.0
2019-06-07 23:50,52.81788,-97.6189516666667,6.9,9.5,325,971.52,17.5,67,7.95,0.0,997.43,332.0
